sat.trackr.live / text

‹ back to catalog

STARLINK-31131

NORAD 58673 · 2023-211G

PAYLOAD ACTIVE UNKNOWN

§ Identity

Operator
Country
US
Launch date
2023-12-29
Launch site
AFETR
Launch vehicle
Mass (kg)
RCS (m²)

Purposes: comms

External: N2YO · Heavens-Above · Gunter

§ Orbital elements

Epoch: 2026-05-25T00:47:53.378016Z

Period
94.27 min
Inclination
43.0008°
Eccentricity
0.0000825
Mean motion
15.27582286 rev/d
Perigee alt
482.5 km
Apogee alt
483.6 km
Semi-major
6,861.2 km
B*
3.2489e-5
RAAN
3.3345°
Arg perigee
272.0316°
Mean anomaly
88.0441°
Rev number
13,554

§ Raw data

STARLINK-311311 58673U 23211G   26145.03325669  .00000632  00000+0  32489-4 0  99902 58673  43.0008   3.3345 0000825 272.0316  88.0441 15.27582286135549

JSON: /api/v1/satellites/58673 · /tle

For live sub-satellite position, see the globe view (requires WebGL).

§ Visibility from observer

Set your observer location to see the next 7 days of passes ≥ 10°. The values pass through the URL so the page stays shareable.

No JS? Fill the form by hand. The geolocation button needs JavaScript.